ヴィルト第3彗星

86P/Wild 3 (2008)

English version
Home page
Total 6,336 html files since Dec. 4, 1995
Updated on June 2, 2008

---------------------------------------------------------------------

・ プロフィール

・ 軌道要素

The following orbital elements are taken from MPC 54168:

Epoch 2008 May 14.0 TT = JDT 2454600.5
T 2008 May 20.0012 TT                                   MPC
q   2.301154             (2000.0)            P               Q
n   0.1425404      Peri.  179.1527      -0.3128826      +0.9151571
a   3.629477       Node    72.5835      -0.8729762      -0.1716712
e   0.365982       Incl.   15.4478      -0.3741884      -0.3647141
P   6.91
From 84 observations 1980-2001, mean residual 0".9.  Nongravitational
     parameters A1 = +0.65, A2 = +0.1112.

・ 星図

・ 光度変化

        m1 = 11.5 + 5 logΔ + 15.0 log r

---------------------------------------------------------------------

軌道要素はMPCのEphemerides and Orbital Elementsに掲載されたものです。
星図は StellaNavigator Ver.2.0 for Windows (アストロアーツ 編著 / アスキー出版局刊) で作成したものです。
光度グラフはComet for Windowsで作成したものです。

---------------------------------------------------------------------

Copyright(C) 1995-2008 Seiichi Yoshida (comet@aerith.net). All rights reserved.